Content
SEND FEEDBACK

Daily
Averages
Monthly
Summary
United States of America

POINTE A LA HACHE, LOUISIANA


Home > North America > United States > Louisiana
Elevation: 4 feet     Latitude: 29 35N     Longitude: 089 50W

WEATHER
 
SELECT A DAY
Number of Records: 169,032;   Date Range: 1/1/95 - 9/30/14
 
SHARE

PRINT THIS DATA

[ ← Previous Day ]
WEATHER ALMANAC - JANUARY 24, 2013
[ Next Day → ]
[ °C ]   °F
Weather ElementAverageHighLow
Temperature54.2 °F73 °F (1:55 pm)42.8 °F (5:48 am)
Dewpoint47 °F55 °F (9:55 am)39.2 °F (5:48 am)
Humidity78.7 %93 % (2:32 am)49 % (1:55 pm)
Barometer30.31 in30.37 in (9:55 am)30.25 in (3:55 pm)
Wind Speed2.9 mph16.1 mph (3:55 pm)
Weather ElementAverage
Visibility4.8 mi
Wind DirectionENE (82.1 °)

Weather ElementTotal
Precipitation---
Heating Degree Days7.1 (Base 65)
Growing Degree Days7.9 (Base 50)
Averaged from 34 records on January 24, 2013
WEATHER CONDITIONS BREAKOUT
WIND DIRECTION BREAKOUT
WEATHER BY HOUR - JANUARY 24, 2013
[ °C ]   °F
Local TimeTemperatureDewpointHumidityBarometerVisibilityWind DirectionWind SpeedGust SpeedPrecipitationEventsConditions
12:39 AM48.2 °F44.6 °F87 %30.33 in0.8 miCalmMist
12:55 AM46.9 °F43.0 °F86 %30.32 in1.0 miCalmMist
1:38 AM46.4 °F42.8 °F87 %30.33 in0.5 miCalmFogFog
1:50 AM46.4 °F42.8 °F87 %30.32 in2.0 miCalmClear
1:55 AM46.9 °F43.0 °F86 %30.32 in8.0 miCalmClear
2:32 AM46.4 °F44.6 °F93 %30.32 in0.2 miCalmFogFog
2:55 AM48.0 °F44.1 °F86 %30.31 in3.0 miCalmClear
3:18 AM48.2 °F44.6 °F87 %30.30 in1.5 miCalmClear
3:55 AM45.0 °F42.1 °F90 %30.30 in0.2 miCalmFogFog
4:07 AM44.6 °F42.8 °F93 %30.30 in0.2 miCalmFogFog
4:55 AM44.1 °F41.0 °F89 %30.32 in0.2 miCalmFogFog
5:11 AM44.6 °F42.8 °F93 %30.32 in2.5 miCalmScattered Clouds
5:48 AM42.8 °F39.2 °F87 %30.33 in0.5 miCalmFogFog
5:55 AM44.1 °F39.9 °F85 %30.32 in0.8 miCalmMist
6:10 AM44.6 °F39.2 °F81 %30.33 in3.0 miCalmMostly Cloudy
6:49 AM44.6 °F41.0 °F87 %30.33 in0.8 miCalmOvercast
6:55 AM44.1 °F41.0 °F89 %30.35 in0.8 miCalmOvercast
7:55 AM48.9 °F46.0 °F90 %30.35 in1.0 miCalmMostly Cloudy
7:59 AM48.2 °F46.4 °F93 %30.35 in2.0 miCalmMostly Cloudy
8:55 AM59.0 °F54.0 °F83 %30.36 in3.0 miCalmMostly Cloudy
9:55 AM66.0 °F55.0 °F68 %30.37 in8.0 miSW (230°)6.9 mphScattered Clouds
10:55 AM70.0 °F52.0 °F53 %30.36 in10.0 miWSW (240°)10.4 mphMostly Cloudy
11:55 AM71.1 °F52.0 °F51 %30.33 in10.0 miWSW (250°)5.8 mphMostly Cloudy
12:55 PM71.1 °F52.0 °F51 %30.30 in10.0 miVariable5.8 mphMostly Cloudy
1:55 PM73.0 °F53.1 °F49 %30.27 in10.0 miSW (220°)6.9 mphMostly Cloudy
2:55 PM71.1 °F53.1 °F53 %30.26 in10.0 miSouth (190°)9.2 mphMostly Cloudy
3:55 PM72.3 °F53.8 °F52 %30.25 in10.0 miSouth (190°)16.1 mphScattered Clouds
4:55 PM68.5 °F51.8 °F55 %30.26 in10.0 miSW (220°)10.4 mphMostly Cloudy
5:55 PM61.0 °F52.0 °F72 %30.27 in10.0 miSSW (210°)6.9 mphScattered Clouds
6:55 PM60.1 °F52.0 °F75 %30.28 in10.0 miSW (220°)4.6 mphScattered Clouds
8:55 PM57.0 °F51.1 °F81 %30.29 in10.0 miSSW (210°)3.5 mphScattered Clouds
9:55 PM55.0 °F51.1 °F86 %30.29 in10.0 miSSW (200°)4.6 mphScattered Clouds
10:55 PM57.9 °F53.1 °F84 %30.28 in7.0 miSSW (200°)3.5 mphClear
11:55 PM55.0 °F51.1 °F86 %30.27 in7.0 miSSW (210°)4.6 mphClear
Hourly data recorded from KNBG, located miles away from Pointe A La Hache, Louisiana







STORIES FROM OUR PARTNERS